K9AS Weather Reports


Display with metric or nautical units.
time (UTC)temp
F
wind
direction
speed
MPH
gust
MPH
rain 1hr
in
rain 24hr
in
rain mn
in
humidity
%
barometer
mb
20210806031325 65 166 0.0 0.0 0.00 0.00 0.00 91 1015.7
20210806030324 65 166 0.0 0.0 0.00 0.00 0.00 90 1015.8
20210806025318 65 166 0.0 0.0 0.00 0.00 0.00 89 1015.8
20210806024314 65 166 0.0 0.0 0.00 0.00 0.00 89 1015.9
20210806023313 66 166 0.0 0.0 0.00 0.00 0.00 89 1015.9
20210806022329 66 166 0.0 0.0 0.00 0.00 0.00 87 1015.9
20210806021325 67 166 0.0 0.0 0.00 0.00 0.00 86 1015.9
20210806020321 68 166 0.0 0.0 0.00 0.00 0.00 85 1015.9
20210806015321 69 166 0.0 0.0 0.00 0.00 0.00 85 1015.8
20210806014318 69 166 0.0 0.0 0.00 0.00 0.00 84 1015.7
20210806013313 69 221 0.0 0.0 0.00 0.00 0.00 83 1015.6
20210806012314 70 222 0.0 0.0 0.00 0.00 0.00 81 1015.5
20210806011329 71 223 0.0 0.0 0.00 0.00 0.00 80 1015.5
20210806010325 72 223 0.0 0.0 0.00 0.00 0.00 75 1015.5
20210806005325 74 223 0.0 0.0 0.00 0.00 0.00 70 1015.5
20210806004319 76 223 0.0 0.0 0.00 0.00 0.00 65 1015.5
20210806003314 77 223 0.0 0.0 0.00 0.00 0.00 63 1015.4
20210806002331 79 223 0.0 0.0 0.00 0.00 0.00 57 1015.4
20210806001332 80 223 0.0 0.0 0.00 0.00 0.00 54 1015.3
20210806000331 82 223 0.0 0.0 0.00 0.00 0.00 53 1015.3
20210805235324 86 223 0.0 0.0 0.00 0.00 0.00 50 1015.2
20210805234325 87 223 0.0 0.0 0.00 0.00 0.00 45 1015.3
20210805233320 86 223 0.0 0.0 0.00 0.00 0.00 47 1015.3
20210805232316 87 223 0.0 0.0 0.00 0.00 0.00 44 1015.4
20210805231316 86 223 0.0 0.0 0.00 0.00 0.00 44 1015.4
20210805230332 86 223 0.0 0.0 0.00 0.00 0.00 45 1015.5
20210805225327 85 223 0.0 0.0 0.00 0.00 0.00 49 1015.5
20210805224323 84 223 0.0 0.0 0.00 0.00 0.00 47 1015.6
20210805223324 84 224 0.0 1.0 0.00 0.00 0.00 44 1015.6
20210805222320 84 130 0.0 4.0 0.00 0.00 0.00 45 1015.6
20210805221316 85 107 0.0 0.0 0.00 0.00 0.00 45 1015.6
20210805220316 85 263 0.0 2.0 0.00 0.00 0.00 47 1015.6
20210805215332 85 191 0.0 1.0 0.00 0.00 0.00 43 1015.7
20210805214329 86 112 0.0 1.0 0.00 0.00 0.00 44 1015.8
20210805213325 84 210 0.0 2.0 0.00 0.00 0.00 45 1015.7
20210805212324 84 216 0.0 1.0 0.00 0.00 0.00 44 1015.8
20210805211317 85 248 0.0 1.0 0.00 0.00 0.00 43 1015.8
20210805210332 85 217 0.0 1.0 0.00 0.00 0.00 44 1015.9
20210805205312 85 146 0.0 3.0 0.00 0.00 0.00 45 1015.9
20210805204329 84 220 0.0 3.0 0.00 0.00 0.00 45 1016.0
20210805203324 84 210 0.0 8.0 0.00 0.00 0.00 47 1016.0
20210805202323 84 233 0.0 2.0 0.00 0.00 0.00 47 1016.1
20210805201319 83 150 1.0 5.0 0.00 0.00 0.00 45 1016.2
20210805200315 83 203 0.0 4.0 0.00 0.00 0.00 48 1016.2
20210805195331 84 235 0.0 3.0 0.00 0.00 0.00 45 1016.3
20210805194332 84 143 0.0 2.0 0.00 0.00 0.00 47 1016.3
20210805193327 84 226 1.0 4.0 0.00 0.00 0.00 41 1016.4
20210805192323 83 230 0.0 6.0 0.00 0.00 0.00 47 1016.5
20210805191323 84 89 0.0 5.0 0.00 0.00 0.00 46 1016.6
20210805190319 84 160 1.0 3.0 0.00 0.00 0.00 45 1016.7
20210805185333 83 217 0.0 2.0 0.00 0.00 0.00 47 1016.8
20210805184327 83 199 1.0 5.0 0.00 0.00 0.00 44 1016.8
20210805183327 83 268 0.0 4.0 0.00 0.00 0.00 47 1017.0
20210805182322 82 182 1.0 4.0 0.00 0.00 0.00 47 1017.1
20210805181319 83 94 2.0 4.0 0.00 0.00 0.00 47 1017.1
20210805180321 83 227 1.0 2.0 0.00 0.00 0.00 45 1017.2
20210805175317 83 220 0.0 4.0 0.00 0.00 0.00 44 1017.3
20210805174313 82 165 1.0 6.0 0.00 0.00 0.00 54 1017.4
20210805173313 81 87 1.0 6.0 0.00 0.00 0.00 50 1017.5
20210805172328 82 124 2.0 5.0 0.00 0.00 0.00 48 1017.6
20210805171324 81 160 2.0 6.0 0.00 0.00 0.00 51 1017.6
20210805170320 82 108 2.0 5.0 0.00 0.00 0.00 51 1017.7
20210805165320 81 127 1.0 6.0 0.00 0.00 0.00 43 1017.8
20210805164319 82 223 0.0 4.0 0.00 0.00 0.00 50 1017.9
20210805163314 82 321 0.0 1.0 0.00 0.00 0.00 48 1018.0
20210805162314 81 119 0.0 1.0 0.00 0.00 0.00 51 1018.1
20210805161331 81 208 1.0 5.0 0.00 0.00 0.00 51 1018.2
20210805160328 80 271 0.0 2.0 0.00 0.00 0.00 57 1018.2
20210805155328 80 224 0.0 1.0 0.00 0.00 0.00 58 1018.3
20210805154325 79 221 0.0 2.0 0.00 0.00 0.00 58 1018.3
20210805153321 79 246 0.0 1.0 0.00 0.00 0.00 59 1018.4
20210805152317 78 229 0.0 3.0 0.00 0.00 0.00 59 1018.4
20210805151317 79 269 0.0 1.0 0.00 0.00 0.00 58 1018.4
20210805150313 78 214 0.0 1.0 0.00 0.00 0.00 60 1018.4
20210805145329 77 215 0.0 1.0 0.00 0.00 0.00 61 1018.4
20210805144328 77 269 0.0 2.0 0.00 0.00 0.00 59 1018.4
20210805143324 76 193 0.0 1.0 0.00 0.00 0.00 65 1018.5
20210805142319 75 189 0.0 2.0 0.00 0.00 0.00 64 1018.5
20210805141319 73 222 0.0 1.0 0.00 0.00 0.00 67 1018.5
20210805140317 73 249 0.0 1.0 0.00 0.00 0.00 70 1018.6
20210805135333 72 267 0.0 0.0 0.00 0.00 0.00 75 1018.7
20210805134327 71 267 0.0 0.0 0.00 0.00 0.00 70 1018.7
20210805133326 71 217 0.0 1.0 0.00 0.00 0.00 76 1018.7
20210805132322 70 238 0.0 0.0 0.00 0.00 0.00 79 1018.7
20210805131317 68 233 0.0 0.0 0.00 0.00 0.00 82 1018.7
20210805130317 66 238 0.0 0.0 0.00 0.00 0.00 85 1018.5
20210805125332 66 248 0.0 0.0 0.00 0.00 0.00 87 1018.4
20210805124328 66 119 0.0 0.0 0.00 0.00 0.00 95 1018.3
20210805123324 63 119 0.0 0.0 0.00 0.00 0.00 94 1018.3
20210805122324 62 119 0.0 0.0 0.00 0.00 0.00 95 1018.2
20210805121320 61 119 0.0 0.0 0.00 0.00 0.00 97 1018.1
20210805120317 60 119 0.0 0.0 0.00 0.00 0.00 98 1018.1
20210805115317 58 119 0.0 0.0 0.00 0.00 0.00 98 1018.0
20210805114314 57 114 0.0 0.0 0.00 0.00 0.00 98 1018.0
20210805113330 56 124 0.0 3.0 0.00 0.00 0.00 98 1018.0
20210805112330 56 132 0.0 0.0 0.00 0.00 0.00 98 1017.9
20210805111325 55 132 0.0 0.0 0.00 0.00 0.00 98 1017.8
20210805110321 54 132 0.0 0.0 0.00 0.00 0.00 98 1017.7
20210805105319 54 132 0.0 0.0 0.00 0.00 0.00 98 1017.7
20210805104319 54 131 0.0 0.0 0.00 0.00 0.00 98 1017.6
20210805103316 54 132 0.0 0.0 0.00 0.00 0.00 98 1017.5
20210805102313 54 132 0.0 0.0 0.00 0.00 0.00 98 1017.4
20210805101312 54 132 0.0 0.0 0.00 0.00 0.00 98 1017.4
20210805100329 54 132 0.0 0.0 0.00 0.00 0.00 98 1017.3
20210805095325 54 132 0.0 0.0 0.00 0.00 0.00 98 1017.3
20210805094324 53 132 0.0 0.0 0.00 0.00 0.00 97 1017.3
20210805093321 54 132 0.0 0.0 0.00 0.00 0.00 97 1017.2
20210805092318 54 132 0.0 0.0 0.00 0.00 0.00 97 1017.1
20210805091315 54 132 0.0 0.0 0.00 0.00 0.00 97 1016.9
20210805090315 54 131 0.0 0.0 0.00 0.00 0.00 97 1016.9
20210805085331 55 132 0.0 0.0 0.00 0.00 0.00 97 1016.9
20210805084326 55 132 0.0 0.0 0.00 0.00 0.00 97 1016.8
20210805083326 56 132 0.0 0.0 0.00 0.00 0.00 97 1016.9
20210805082319 56 132 0.0 0.0 0.00 0.00 0.00 97 1016.8
20210805081315 56 132 0.0 0.0 0.00 0.00 0.00 97 1016.8
20210805080316 55 132 0.0 0.0 0.00 0.00 0.00 98 1016.8
20210805075332 55 132 0.0 0.0 0.00 0.00 0.00 97 1016.8
20210805074327 55 132 0.0 0.0 0.00 0.00 0.00 97 1016.8
20210805073324 55 132 0.0 0.0 0.00 0.00 0.00 96 1016.8
20210805072325 55 131 0.0 0.0 0.00 0.00 0.00 96 1017.0
20210805071321 56 132 0.0 0.0 0.00 0.00 0.00 96 1017.0
20210805070317 57 132 0.0 0.0 0.00 0.00 0.00 96 1017.1
20210805065317 57 132 0.0 0.0 0.00 0.00 0.00 97 1017.0
20210805064313 57 132 0.0 0.0 0.00 0.00 0.00 96 1017.1
20210805063329 56 132 0.0 0.0 0.00 0.00 0.00 96 1017.2
20210805062326 56 132 0.0 0.0 0.00 0.00 0.00 96 1017.1
20210805061327 57 132 0.0 0.0 0.00 0.00 0.00 96 1017.1
20210805060323 57 132 0.0 0.0 0.00 0.00 0.00 95 1017.1
20210805055319 57 132 0.0 0.0 0.00 0.00 0.00 95 1017.1
20210805054319 58 132 0.0 0.0 0.00 0.00 0.00 95 1017.2
20210805053315 58 132 0.0 0.0 0.00 0.00 0.00 95 1017.2
20210805052311 58 131 0.0 0.0 0.00 0.00 0.00 95 1017.2
20210805051312 58 132 0.0 0.0 0.00 0.00 0.00 94 1017.2
20210805050328 58 132 0.0 0.0 0.00 0.00 0.00 94 1017.3
20210805045324 58 131 0.0 0.0 0.00 0.00 0.00 94 1017.3
20210805044319 59 131 0.0 0.0 0.00 0.00 0.00 94 1017.4
20210805043320 59 132 0.0 0.0 0.00 0.00 0.00 94 1017.3
20210805042316 59 132 0.0 0.0 0.00 0.00 0.00 94 1017.3
20210805041332 59 132 0.0 0.0 0.00 0.00 0.00 94 1017.3
20210805040332 59 132 0.0 0.0 0.00 0.00 0.00 92 1017.3
20210805035326 60 132 0.0 0.0 0.00 0.00 0.00 90 1017.3
20210805034323 61 132 0.0 0.0 0.00 0.00 0.00 90 1017.2
20210805033321 62 132 0.0 0.0 0.00 0.00 0.00 91 1017.2
20210805032317 62 132 0.0 0.0 0.00 0.00 0.00 91 1017.3